THORAD AGENA D DEB, 42527

Orbit data source: Space-Track

THORAD AGENA D DEB, 42527 is space debris in SSO originally from a launch on Wed, 08 Apr 1970 UTC launched from the Air Force Western Test Range (AFWTR). Debris objects in space refer to the collection of defunct objects orbiting the Earth. Examples of debris include non-operational satellites, rocket bodies, and fragments generated from explosions, collisions, or faulty payload assembly.

Loading next visibility...
Identifier
42527, 1970-025SH
Orbit
SSO
Country
Flag of USUS
Related business
Manufacturer
Unknown
Mission
Spacecraft
Bus & Motor
Unknown
Mass
Unknown
Launch date (UTC)
1970-04-08 (56 years ago)
Launch vehicle
Unknown
Launch site
Air Force Western Test Range (AFWTR)
Object type
Payload
Rocket body
Debris
Shape & HBR
Unknown shape, 0.1 m
Radar Cross Section
Small (<0.1 m²)

Expand to show TLE details & history
Last TLE update: 5 days ago

TLE from 5 days ago
0 THORAD AGENA D DEB
1 42527U 70025SH  26058.63641167  .00007821  00000-0  24011-2 0  9997
2 42527  99.1314   9.2071 0023577 285.4724  74.3860 14.41747060635617
Epoch: 2026-02-27T15:16Z
TLE epoch observation values (Epoch: 2026-02-27T15:16:25.968Z)
Latitude
0.00004°
Longitude
-17.37114°
Altitude
751.173 km
Speed
7.481 km/s
True Right ascension
00h 36m 49s
True Declination
0° 00' 00"
Sunlit
Object was in daylight at epoch
Visualization orbit readout
Latitude
Unknown
Longitude
Unknown
Altitude
Unknown
Speed
Unknown
Apparent Right ascension
Unknown
Apparent Declination
Unknown
Sunlit
N/A
Visualization observer readout
Local Sidereal Time
09:09:37
Azimuth
Unknown
Elevation
Unknown
Doppler factor
Unknown
Orbital elements
Apogee altitude
766.688 km
Perigee altitude
733.077 km
Semi-major axis
7,128.019 km
Eccentricity
0.00236
Inclination
99.1314°
RAAN
9.2071°
Arg. of periapsis
285.4724°
True anomaly
74.64641°
Mean anomaly
74.386°
Eccentric anomaly
74.51618°
Mean motion
3.60653 °/min
Orbital period
99.82 mins
BSTAR
0.0024011

Documentation

Showing up to 5 results
|